Zurück zum Katalog

CZ-6A DEB

AktivSSO
NORAD 54468·DEBRIS·🇨🇳 China

Gestartet Nov 11, 2022 von Taiyuan Satellite Launch Center

Loading…

Nächste Überflüge (nächste 24 Stunden)

TLE

AktuellSource: Space-Track

Epoche: Sep 14, 2026, 00:38 UTC

1 54468U 22151GU  26257.02671742  .00000547  00000-0  26434-3 0  9997
2 54468  98.7522 269.4708 0053817  90.4296 270.3048 14.21811469198731

Verfolge CZ-6A DEB in Echtzeit mit AllMySat

Download on the App Store